Location: Newark
(25.0000°N, 73.5000°E)
Time: 01:04:09
(UTC+00:00)

Tiros 1 despin weight - Pass Details

Date: 08 March 2021
Orbit: 593 x 641 km, 48.2° (Epoch: 15 April)

Event Time Altitude Azimuth Distance (km) Brightness Sun altitude
Rises 14:09:53 0° 197° (SSW) 2,815 ? -14.0°
Reaches altitude 10° 14:12:29 10° 183° (S) 1,922 ? -14.6°
Maximum altitude 14:16:03 24° 129° (SE) 1,251 ? -15.4°
Enters shadow 14:16:29 24° 119° (ESE) 1,265 ? -15.5°
Drops below altitude 10° 14:19:38 10° 75° (ENE) 1,948 - -16.2°
Sets 14:22:17 0° 62° (ENE) 2,863 - -16.8°
